STARLINK-32442

Last updated on Thu Nov 21 2024 00:02:05 GMT+0000 (Coordinated Universal Time)

1 61729U 24196Y 24325.58335648 -.01404612 00000+0 -13436-1 0 9992 2 61729 53.1596 149.2670 0000977 89.4879 66.7796 15.69101056 4372
UTC large
Height (km)
Speed (km/s)
/
Latitude / Longitude
Inclination (degrees)
Orbital Period (minutes)
Azimuth
Elevation
Range (km)
Doppler Factor

Next 0 passes for location: London (51.5072 / 0.1276)

Sorry there are no passes over London.